TimeCST,TemperatureF,Dew PointF,Humidity,Sea Level PressureIn,VisibilityMPH,Wind Direction,Wind SpeedMPH,Gust SpeedMPH,PrecipitationIn,Events,Conditions,WindDirDegrees,DateUTC
12:15 AM,36.7,18.1,47,30.23,10.0,South,6.9,-,N/A,,Clear,170,2013-02-18 06:15:00
12:35 AM,36.5,18.0,47,30.23,10.0,South,6.9,-,N/A,,Clear,170,2013-02-18 06:35:00
12:55 AM,36.3,18.0,47,30.23,10.0,South,8.1,-,N/A,,Clear,170,2013-02-18 06:55:00
1:15 AM,36.3,18.1,48,30.23,10.0,South,8.1,-,N/A,,Clear,180,2013-02-18 07:15:00
1:35 AM,37.0,18.3,47,30.22,10.0,South,12.7,-,N/A,,Clear,180,2013-02-18 07:35:00
1:55 AM,38.1,18.3,45,30.22,10.0,South,12.7,-,N/A,,Clear,190,2013-02-18 07:55:00
2:35 AM,39.4,18.3,43,30.22,10.0,South,12.7,18.4,N/A,,Clear,190,2013-02-18 08:35:00
2:55 AM,39.0,19.0,45,30.22,10.0,South,11.5,-,N/A,,Clear,190,2013-02-18 08:55:00
3:15 AM,38.7,19.6,46,30.22,10.0,South,11.5,-,N/A,,Clear,180,2013-02-18 09:15:00
3:35 AM,38.3,20.1,48,30.22,10.0,South,11.5,-,N/A,,Clear,180,2013-02-18 09:35:00
3:55 AM,38.1,20.7,49,30.22,10.0,South,9.2,-,N/A,,Clear,170,2013-02-18 09:55:00
4:15 AM,37.2,20.7,51,30.23,10.0,South,8.1,-,N/A,,Clear,180,2013-02-18 10:15:00
4:35 AM,36.7,21.0,53,30.24,10.0,South,6.9,-,N/A,,Clear,170,2013-02-18 10:35:00
4:55 AM,36.7,21.2,54,30.24,10.0,SSE,3.5,-,N/A,,Clear,150,2013-02-18 10:55:00
5:15 AM,36.1,21.4,55,30.24,10.0,SSE,3.5,-,N/A,,Clear,150,2013-02-18 11:15:00
5:35 AM,36.1,22.1,57,30.24,10.0,SSE,5.8,-,N/A,,Clear,150,2013-02-18 11:35:00
5:55 AM,36.3,22.1,56,30.24,10.0,SSE,6.9,-,N/A,,Clear,160,2013-02-18 11:55:00
6:15 AM,35.8,22.3,58,30.25,10.0,SE,4.6,-,N/A,,Clear,140,2013-02-18 12:15:00
6:35 AM,35.2,22.8,61,30.26,10.0,South,5.8,-,N/A,,Clear,170,2013-02-18 12:35:00
6:55 AM,34.7,23.7,64,30.26,10.0,South,6.9,-,N/A,,Clear,170,2013-02-18 12:55:00
7:15 AM,36.0,25.2,65,30.26,10.0,South,6.9,-,N/A,,Clear,170,2013-02-18 13:15:00
7:35 AM,37.9,26.1,62,30.26,10.0,South,8.1,-,N/A,,Clear,170,2013-02-18 13:35:00
7:55 AM,39.2,27.1,62,30.27,10.0,South,10.4,-,N/A,,Clear,170,2013-02-18 13:55:00
8:15 AM,41.2,28.2,60,30.28,10.0,South,9.2,-,N/A,,Clear,170,2013-02-18 14:15:00
8:35 AM,43.2,29.3,58,30.28,10.0,South,8.1,-,N/A,,Clear,170,2013-02-18 14:35:00
8:55 AM,44.8,30.2,57,30.27,10.0,South,11.5,-,N/A,,Clear,180,2013-02-18 14:55:00
9:15 AM,46.8,31.8,56,30.27,10.0,South,15.0,-,N/A,,Clear,190,2013-02-18 15:15:00
9:35 AM,47.8,32.4,55,30.27,10.0,South,15.0,21.9,N/A,,Clear,180,2013-02-18 15:35:00
9:55 AM,49.5,33.6,54,30.27,10.0,South,13.8,-,N/A,,Clear,190,2013-02-18 15:55:00
10:15 AM,50.7,34.3,53,30.26,10.0,South,16.1,21.9,N/A,,Clear,190,2013-02-18 16:15:00
10:35 AM,51.8,35.1,53,30.26,10.0,SSW,17.3,24.2,N/A,,Clear,200,2013-02-18 16:35:00
10:55 AM,52.9,35.2,51,30.25,10.0,SSW,19.6,27.6,N/A,,Clear,200,2013-02-18 16:55:00
11:15 AM,54.1,35.1,49,30.24,10.0,SSW,17.3,25.3,N/A,,Clear,200,2013-02-18 17:15:00
11:35 AM,54.9,34.3,46,30.23,10.0,South,12.7,23.0,N/A,,Clear,180,2013-02-18 17:35:00
11:55 AM,56.1,34.5,44,30.21,10.0,South,16.1,21.9,N/A,,Clear,170,2013-02-18 17:55:00
12:15 PM,56.8,34.5,43,30.19,10.0,SSW,18.4,21.9,N/A,,Clear,200,2013-02-18 18:15:00
12:35 PM,57.6,34.3,42,30.18,10.0,SSE,18.4,25.3,N/A,,Clear,160,2013-02-18 18:35:00
12:55 PM,57.9,34.3,41,30.16,10.0,South,15.0,26.5,N/A,,Clear,180,2013-02-18 18:55:00
1:15 PM,58.8,34.2,40,30.14,10.0,South,19.6,26.5,N/A,,Clear,180,2013-02-18 19:15:00
1:35 PM,59.2,34.2,39,30.13,10.0,South,15.0,21.9,N/A,,Clear,180,2013-02-18 19:35:00
1:55 PM,59.9,34.2,38,30.13,10.0,SSE,13.8,26.5,N/A,,Clear,160,2013-02-18 19:55:00
2:15 PM,59.9,33.1,36,30.12,10.0,South,16.1,25.3,N/A,,Clear,180,2013-02-18 20:15:00
2:35 PM,59.0,32.2,36,30.11,10.0,SSE,10.4,25.3,N/A,,Clear,160,2013-02-18 20:35:00
2:55 PM,58.5,32.0,37,30.11,10.0,South,19.6,26.5,N/A,,Clear,170,2013-02-18 20:55:00
3:15 PM,58.8,31.8,36,30.10,10.0,South,23.0,29.9,N/A,,Clear,180,2013-02-18 21:15:00
3:35 PM,58.5,31.6,36,30.09,10.0,South,16.1,26.5,N/A,,Clear,170,2013-02-18 21:35:00
3:55 PM,57.9,32.0,37,30.08,10.0,South,13.8,29.9,N/A,,Scattered Clouds,170,2013-02-18 21:55:00
4:15 PM,57.9,32.4,38,30.06,10.0,South,17.3,25.3,N/A,,Clear,170,2013-02-18 22:15:00
4:35 PM,56.8,32.5,40,30.04,10.0,SSE,16.1,25.3,N/A,,Clear,160,2013-02-18 22:35:00
4:55 PM,56.5,32.7,41,30.05,10.0,SSE,18.4,26.5,N/A,,Scattered Clouds,160,2013-02-18 22:55:00
5:15 PM,55.8,32.0,41,30.04,10.0,South,18.4,24.2,N/A,,Scattered Clouds,170,2013-02-18 23:15:00
5:35 PM,55.2,31.1,40,30.05,10.0,SSE,16.1,23.0,N/A,,Scattered Clouds,160,2013-02-18 23:35:00
5:55 PM,54.7,31.1,41,30.04,10.0,SSE,15.0,23.0,N/A,,Scattered Clouds,160,2013-02-18 23:55:00
6:15 PM,54.5,30.9,41,30.04,10.0,SSE,18.4,24.2,N/A,,Scattered Clouds,160,2013-02-19 00:15:00
6:35 PM,54.5,30.6,40,30.03,10.0,SSE,13.8,25.3,N/A,,Mostly Cloudy,150,2013-02-19 00:35:00
6:55 PM,54.5,30.2,39,30.02,10.0,SSE,13.8,24.2,N/A,,Overcast,160,2013-02-19 00:55:00
7:15 PM,54.3,30.0,39,30.01,10.0,SSE,17.3,25.3,N/A,,Scattered Clouds,160,2013-02-19 01:15:00
7:35 PM,54.1,29.8,39,30.01,10.0,SSE,13.8,27.6,N/A,,Mostly Cloudy,160,2013-02-19 01:35:00
7:55 PM,54.0,30.0,40,30.01,10.0,SSE,13.8,25.3,N/A,,Overcast,160,2013-02-19 01:55:00
8:15 PM,54.1,30.2,40,30.00,10.0,SSE,19.6,31.1,N/A,,Mostly Cloudy,160,2013-02-19 02:15:00
8:35 PM,54.3,30.7,41,30.00,10.0,SSE,21.9,32.2,N/A,,Overcast,160,2013-02-19 02:35:00
8:55 PM,54.1,31.3,42,29.99,10.0,South,21.9,27.6,N/A,,Overcast,170,2013-02-19 02:55:00
9:15 PM,53.8,31.6,43,29.99,10.0,South,18.4,31.1,N/A,,Overcast,170,2013-02-19 03:15:00
9:35 PM,53.6,31.8,44,29.98,10.0,South,17.3,28.8,N/A,,Overcast,170,2013-02-19 03:35:00
9:55 PM,53.2,32.0,44,29.97,10.0,SSE,17.3,21.9,N/A,,Overcast,160,2013-02-19 03:55:00
10:15 PM,52.9,32.2,45,29.97,10.0,South,20.7,27.6,N/A,,Overcast,170,2013-02-19 04:15:00
10:35 PM,52.0,33.4,49,29.96,10.0,South,12.7,27.6,N/A,Rain,Rain,170,2013-02-19 04:35:00
10:55 PM,48.4,38.1,68,29.96,10.0,SSE,13.8,25.3,0.01,Rain,Light Rain,160,2013-02-19 04:55:00
11:15 PM,46.8,39.9,77,29.96,5.0,South,11.5,19.6,0.03,Rain,Heavy Rain,170,2013-02-19 05:15:00
11:35 PM,45.3,41.4,86,29.99,5.0,SSW,6.9,-,0.10,Rain,Rain,210,2013-02-19 05:35:00
11:55 PM,44.8,42.3,91,29.99,3.0,South,3.5,-,0.20,Rain,Heavy Rain,170,2013-02-19 05:55:00